Year,Month,Day,Hour,Minute,Value (Times are PST for temperature in C)
2016,05,29,00,00,9.70
2016,05,29,00,01,9.70
2016,05,29,00,02,9.70
2016,05,29,00,03,9.70
2016,05,29,00,04,9.70
2016,05,29,00,05,9.70
2016,05,29,00,06,9.70
2016,05,29,00,07,9.70
2016,05,29,00,08,9.70
2016,05,29,00,09,9.70
2016,05,29,00,10,9.70
2016,05,29,00,11,9.70
2016,05,29,00,12,9.70
2016,05,29,00,13,9.70
2016,05,29,00,14,9.70
2016,05,29,00,15,9.70
2016,05,29,00,16,9.70
2016,05,29,00,17,9.70
2016,05,29,00,18,9.70
2016,05,29,00,19,9.70
2016,05,29,00,20,9.70
2016,05,29,00,21,9.70
2016,05,29,00,22,9.70
2016,05,29,00,23,9.70
2016,05,29,00,24,9.70
2016,05,29,00,25,9.70
2016,05,29,00,26,9.70
2016,05,29,00,27,9.70
2016,05,29,00,28,9.70
2016,05,29,00,29,9.70
2016,05,29,00,30,9.70
2016,05,29,00,31,9.60
2016,05,29,00,32,9.60
2016,05,29,00,33,9.60
2016,05,29,00,34,9.60
2016,05,29,00,35,9.60
2016,05,29,00,36,9.60
2016,05,29,00,37,9.60
2016,05,29,00,38,9.60
2016,05,29,00,39,9.60
2016,05,29,00,40,9.60
2016,05,29,00,41,9.60
2016,05,29,00,42,9.50
2016,05,29,00,43,9.50
2016,05,29,00,44,9.50
2016,05,29,00,45,9.50
2016,05,29,00,46,9.50
2016,05,29,00,47,9.40
2016,05,29,00,48,9.40
2016,05,29,00,49,9.40
2016,05,29,00,50,9.40
2016,05,29,00,51,9.40
2016,05,29,00,52,9.40
2016,05,29,00,53,9.40
2016,05,29,00,54,9.40
2016,05,29,00,55,9.40
2016,05,29,00,56,9.40
2016,05,29,00,57,9.40
2016,05,29,00,58,9.40
2016,05,29,00,59,9.40
2016,05,29,01,00,9.40
2016,05,29,01,01,9.40
2016,05,29,01,02,9.40
2016,05,29,01,03,9.40
2016,05,29,01,04,9.50
2016,05,29,01,05,9.50
2016,05,29,01,06,9.50
2016,05,29,01,07,9.50
2016,05,29,01,08,9.50
2016,05,29,01,09,9.50
2016,05,29,01,10,9.50
2016,05,29,01,11,9.50
2016,05,29,01,12,9.60
2016,05,29,01,13,9.60
2016,05,29,01,14,9.60
2016,05,29,01,15,9.60
2016,05,29,01,16,9.60
2016,05,29,01,17,9.60
2016,05,29,01,18,9.60
2016,05,29,01,19,9.60
2016,05,29,01,20,9.60
2016,05,29,01,21,9.60
2016,05,29,01,22,9.60
2016,05,29,01,23,9.60
2016,05,29,01,24,9.60
2016,05,29,01,25,9.60
2016,05,29,01,26,9.60
2016,05,29,01,27,9.60
2016,05,29,01,28,9.60
2016,05,29,01,29,9.60
2016,05,29,01,30,9.60
2016,05,29,01,31,9.60
2016,05,29,01,32,9.60
2016,05,29,01,33,9.60
2016,05,29,01,34,9.60
2016,05,29,01,35,9.60
2016,05,29,01,36,9.60
2016,05,29,01,37,9.60
2016,05,29,01,38,9.60
2016,05,29,01,39,9.60
2016,05,29,01,40,9.60
2016,05,29,01,41,9.60
2016,05,29,01,42,9.60
2016,05,29,01,43,9.60
2016,05,29,01,44,9.60
2016,05,29,01,45,9.60
2016,05,29,01,46,9.60
2016,05,29,01,47,9.60
2016,05,29,01,48,9.60
2016,05,29,01,49,9.60
2016,05,29,01,50,9.60
2016,05,29,01,51,9.60
2016,05,29,01,52,9.50
2016,05,29,01,53,9.50
2016,05,29,01,54,9.50
2016,05,29,01,55,9.50
2016,05,29,01,56,9.50
2016,05,29,01,57,9.50
2016,05,29,01,58,9.50
2016,05,29,01,59,9.60
2016,05,29,02,00,9.60
2016,05,29,02,01,9.60
2016,05,29,02,02,9.60
2016,05,29,02,03,9.60
2016,05,29,02,04,9.60
2016,05,29,02,05,9.60
2016,05,29,02,06,9.60
2016,05,29,02,07,9.60
2016,05,29,02,08,9.60
2016,05,29,02,09,9.60
2016,05,29,02,10,9.60
2016,05,29,02,11,9.60
2016,05,29,02,12,9.60
2016,05,29,02,13,9.60
2016,05,29,02,14,9.60
2016,05,29,02,15,9.60
2016,05,29,02,16,9.50
2016,05,29,02,17,9.50
2016,05,29,02,18,9.50
2016,05,29,02,19,9.50
2016,05,29,02,20,9.40
2016,05,29,02,21,9.40
2016,05,29,02,22,9.40
2016,05,29,02,23,9.40
2016,05,29,02,24,9.40
2016,05,29,02,25,9.30
2016,05,29,02,26,9.30
2016,05,29,02,27,9.30
2016,05,29,02,28,9.30
2016,05,29,02,29,9.30
2016,05,29,02,30,9.30
2016,05,29,02,31,9.20
2016,05,29,02,32,9.20
2016,05,29,02,33,9.20
2016,05,29,02,34,9.20
2016,05,29,02,35,9.20
2016,05,29,02,36,9.20
2016,05,29,02,37,9.20
2016,05,29,02,38,9.20
2016,05,29,02,39,9.10
2016,05,29,02,40,9.10
2016,05,29,02,41,9.10
2016,05,29,02,42,9.10
2016,05,29,02,43,9.10
2016,05,29,02,44,9.00
2016,05,29,02,45,9.00
2016,05,29,02,46,9.00
2016,05,29,02,47,9.00
2016,05,29,02,48,8.90
2016,05,29,02,49,8.90
2016,05,29,02,50,8.90
2016,05,29,02,51,8.90
2016,05,29,02,52,8.90
2016,05,29,02,53,8.90
2016,05,29,02,54,8.80
2016,05,29,02,55,8.80
2016,05,29,02,56,8.80
2016,05,29,02,57,8.80
2016,05,29,02,58,8.80
2016,05,29,02,59,8.80
2016,05,29,03,00,8.80
2016,05,29,03,01,8.80
2016,05,29,03,02,8.80
2016,05,29,03,03,8.80
2016,05,29,03,04,8.80
2016,05,29,03,05,8.80
2016,05,29,03,06,8.70
2016,05,29,03,07,8.70
2016,05,29,03,08,8.70
2016,05,29,03,09,8.70
2016,05,29,03,10,8.70
2016,05,29,03,11,8.70
2016,05,29,03,12,8.70
2016,05,29,03,13,8.70
2016,05,29,03,14,8.70
2016,05,29,03,15,8.70
2016,05,29,03,16,8.70
2016,05,29,03,17,8.70
2016,05,29,03,18,8.70
2016,05,29,03,19,8.70
2016,05,29,03,20,8.70
2016,05,29,03,21,8.70
2016,05,29,03,22,8.70
2016,05,29,03,23,8.70
2016,05,29,03,24,8.70
2016,05,29,03,25,8.70
2016,05,29,03,26,8.70
2016,05,29,03,27,8.70
2016,05,29,03,28,8.70
2016,05,29,03,29,8.70
2016,05,29,03,30,8.70
2016,05,29,03,31,8.70
2016,05,29,03,32,8.60
2016,05,29,03,33,8.60
2016,05,29,03,34,8.60
2016,05,29,03,35,8.60
2016,05,29,03,36,8.60
2016,05,29,03,37,8.60
2016,05,29,03,38,8.60
2016,05,29,03,39,8.60
2016,05,29,03,40,8.60
2016,05,29,03,41,8.60
2016,05,29,03,42,8.60
2016,05,29,03,43,8.60
2016,05,29,03,44,8.60
2016,05,29,03,45,8.60
2016,05,29,03,46,8.60
2016,05,29,03,47,8.60
2016,05,29,03,48,8.60
2016,05,29,03,49,8.60
2016,05,29,03,50,8.70
2016,05,29,03,51,8.70
2016,05,29,03,52,8.70
2016,05,29,03,53,8.70
2016,05,29,03,54,8.70
2016,05,29,03,55,8.70
2016,05,29,03,56,8.80
2016,05,29,03,57,8.80
2016,05,29,03,58,8.80
2016,05,29,03,59,8.90
2016,05,29,04,00,8.90
2016,05,29,04,01,9.00
2016,05,29,04,02,9.00
2016,05,29,04,03,9.00
2016,05,29,04,04,9.10
2016,05,29,04,05,9.10
2016,05,29,04,06,9.10
2016,05,29,04,07,9.10
2016,05,29,04,08,9.10
2016,05,29,04,09,9.10
2016,05,29,04,10,9.10
2016,05,29,04,11,9.10
2016,05,29,04,12,9.10
2016,05,29,04,13,9.10
2016,05,29,04,14,9.10
2016,05,29,04,15,9.10
2016,05,29,04,16,9.10
2016,05,29,04,17,9.10
2016,05,29,04,18,9.10
2016,05,29,04,19,9.10
2016,05,29,04,20,9.10
2016,05,29,04,21,9.10
2016,05,29,04,22,9.10
2016,05,29,04,23,9.10
2016,05,29,04,24,9.10
2016,05,29,04,25,9.10
2016,05,29,04,26,9.10
2016,05,29,04,27,9.10
2016,05,29,04,28,9.10
2016,05,29,04,29,9.10
2016,05,29,04,30,9.10
2016,05,29,04,31,9.10
2016,05,29,04,32,9.10
2016,05,29,04,33,9.10
2016,05,29,04,34,9.10
2016,05,29,04,35,9.10
2016,05,29,04,36,9.10
2016,05,29,04,37,9.10
2016,05,29,04,38,9.10
2016,05,29,04,39,9.10
2016,05,29,04,40,9.10
2016,05,29,04,41,9.10
2016,05,29,04,42,9.10
2016,05,29,04,43,9.10
2016,05,29,04,44,9.10
2016,05,29,04,45,9.10
2016,05,29,04,46,9.10
2016,05,29,04,47,9.10
2016,05,29,04,48,9.00
2016,05,29,04,49,9.00
2016,05,29,04,50,9.00
2016,05,29,04,51,9.00
2016,05,29,04,52,9.00
2016,05,29,04,53,8.90
2016,05,29,04,54,8.90
2016,05,29,04,55,8.90
2016,05,29,04,56,8.90
2016,05,29,04,57,8.90
2016,05,29,04,58,8.90
2016,05,29,04,59,8.90
2016,05,29,05,00,8.90
2016,05,29,05,01,8.90
2016,05,29,05,02,8.90
2016,05,29,05,03,8.90
2016,05,29,05,04,8.90
2016,05,29,05,05,8.90
2016,05,29,05,06,8.80
2016,05,29,05,07,8.80
2016,05,29,05,08,8.80
2016,05,29,05,09,8.80
2016,05,29,05,10,8.80
2016,05,29,05,11,8.80
2016,05,29,05,12,8.80
2016,05,29,05,13,8.80
2016,05,29,05,14,8.80
2016,05,29,05,15,8.80
2016,05,29,05,16,8.80
2016,05,29,05,17,8.70
2016,05,29,05,18,8.70
2016,05,29,05,19,8.70
2016,05,29,05,20,8.70
2016,05,29,05,21,8.70
2016,05,29,05,22,8.70
2016,05,29,05,23,8.70
2016,05,29,05,24,8.70
2016,05,29,05,25,8.70
2016,05,29,05,26,8.70
2016,05,29,05,27,8.70
2016,05,29,05,28,8.70
2016,05,29,05,29,8.70
2016,05,29,05,30,8.70
2016,05,29,05,31,8.70
2016,05,29,05,32,8.70
2016,05,29,05,33,8.70
2016,05,29,05,34,8.70
2016,05,29,05,35,8.70
2016,05,29,05,36,8.70
2016,05,29,05,37,8.70
2016,05,29,05,38,8.70
2016,05,29,05,39,8.70
2016,05,29,05,40,8.70
2016,05,29,05,41,8.70
2016,05,29,05,42,8.70
2016,05,29,05,43,8.70
2016,05,29,05,44,8.70
2016,05,29,05,45,8.70
2016,05,29,05,46,8.70
2016,05,29,05,47,8.70
2016,05,29,05,48,8.70
2016,05,29,05,49,8.70
2016,05,29,05,50,8.70
2016,05,29,05,51,8.70
2016,05,29,05,52,8.70
2016,05,29,05,53,8.70
2016,05,29,05,54,8.70
2016,05,29,05,55,8.70
2016,05,29,05,56,8.70
2016,05,29,05,57,8.70
2016,05,29,05,58,8.70
2016,05,29,05,59,8.70
2016,05,29,06,00,8.70
2016,05,29,06,01,8.70
2016,05,29,06,02,8.70
2016,05,29,06,03,8.70
2016,05,29,06,04,8.70
2016,05,29,06,05,8.70
2016,05,29,06,06,8.70
2016,05,29,06,07,8.70
2016,05,29,06,08,8.70
2016,05,29,06,09,8.70
2016,05,29,06,10,8.70
2016,05,29,06,11,8.70
2016,05,29,06,12,8.70
2016,05,29,06,13,8.70
2016,05,29,06,14,8.70
2016,05,29,06,15,8.70
2016,05,29,06,16,8.70
2016,05,29,06,17,8.70
2016,05,29,06,18,8.60
2016,05,29,06,19,8.60
2016,05,29,06,20,8.60
2016,05,29,06,21,8.60
2016,05,29,06,22,8.60
2016,05,29,06,23,8.70
2016,05,29,06,24,8.70
2016,05,29,06,25,8.70
2016,05,29,06,26,8.70
2016,05,29,06,27,8.70
2016,05,29,06,28,8.70
2016,05,29,06,29,8.70
2016,05,29,06,30,8.70
2016,05,29,06,31,8.70
2016,05,29,06,32,8.70
2016,05,29,06,33,8.70
2016,05,29,06,34,8.70
2016,05,29,06,35,8.70
2016,05,29,06,36,8.70
2016,05,29,06,37,8.70
2016,05,29,06,38,8.70
2016,05,29,06,39,8.70
2016,05,29,06,40,8.80
2016,05,29,06,41,8.80
2016,05,29,06,42,8.80
2016,05,29,06,43,8.80
2016,05,29,06,44,8.80
2016,05,29,06,45,8.80
2016,05,29,06,46,8.80
2016,05,29,06,47,8.80
2016,05,29,06,48,8.80
2016,05,29,06,49,8.80
2016,05,29,06,50,8.80
2016,05,29,06,51,8.90
2016,05,29,06,52,8.90
2016,05,29,06,53,8.90
2016,05,29,06,54,8.90
2016,05,29,06,55,8.90
2016,05,29,06,56,8.90
2016,05,29,06,57,9.00
2016,05,29,06,58,9.00
2016,05,29,06,59,9.00
2016,05,29,07,00,9.00
2016,05,29,07,01,9.10
2016,05,29,07,02,9.10
2016,05,29,07,03,9.10
2016,05,29,07,04,9.10
2016,05,29,07,05,9.10
2016,05,29,07,06,9.10
2016,05,29,07,07,9.10
2016,05,29,07,08,9.10
2016,05,29,07,09,9.20
2016,05,29,07,10,9.20
2016,05,29,07,11,9.20
2016,05,29,07,12,9.20
2016,05,29,07,13,9.20
2016,05,29,07,14,9.30
2016,05,29,07,15,9.30
2016,05,29,07,16,9.30
2016,05,29,07,17,9.30
2016,05,29,07,18,9.30
2016,05,29,07,19,9.30
2016,05,29,07,20,9.40
2016,05,29,07,21,9.40
2016,05,29,07,22,9.40
2016,05,29,07,23,9.40
2016,05,29,07,24,9.40
2016,05,29,07,25,9.50
2016,05,29,07,26,9.50
2016,05,29,07,27,9.50
2016,05,29,07,28,9.60
2016,05,29,07,29,9.60
2016,05,29,07,30,9.60
2016,05,29,07,31,9.60
2016,05,29,07,32,9.70
2016,05,29,07,33,9.70
2016,05,29,07,34,9.70
2016,05,29,07,35,9.70
2016,05,29,07,36,9.70
2016,05,29,07,37,9.70
2016,05,29,07,38,9.70
2016,05,29,07,39,9.80
2016,05,29,07,40,9.80
2016,05,29,07,41,9.80
2016,05,29,07,42,9.80
2016,05,29,07,43,9.80
2016,05,29,07,44,9.80
2016,05,29,07,45,9.80
2016,05,29,07,46,9.90
2016,05,29,07,47,9.90
2016,05,29,07,48,9.90
2016,05,29,07,49,9.90
2016,05,29,07,50,9.90
2016,05,29,07,51,10.00
2016,05,29,07,52,10.10
2016,05,29,07,53,10.10
2016,05,29,07,54,10.20
2016,05,29,07,55,10.20
2016,05,29,07,56,10.30
2016,05,29,07,57,10.30
2016,05,29,07,58,10.30
2016,05,29,07,59,10.30
2016,05,29,08,00,10.40
2016,05,29,08,01,10.40
2016,05,29,08,02,10.40
2016,05,29,08,03,10.50
2016,05,29,08,04,10.50
2016,05,29,08,05,10.60
2016,05,29,08,06,10.60
2016,05,29,08,07,10.70
2016,05,29,08,08,10.70
2016,05,29,08,09,10.70
2016,05,29,08,10,10.80
2016,05,29,08,11,10.80
2016,05,29,08,12,10.90
2016,05,29,08,13,10.90
2016,05,29,08,14,10.90
2016,05,29,08,15,10.90
2016,05,29,08,16,11.00
2016,05,29,08,17,11.00
2016,05,29,08,18,11.00
2016,05,29,08,19,11.00
2016,05,29,08,20,11.10
2016,05,29,08,21,11.10
2016,05,29,08,22,11.10
2016,05,29,08,23,11.10
2016,05,29,08,24,11.10
2016,05,29,08,25,11.10
2016,05,29,08,26,11.10
2016,05,29,08,27,11.10
2016,05,29,08,28,11.10
2016,05,29,08,29,11.10
2016,05,29,08,30,11.10
2016,05,29,08,31,11.10
2016,05,29,08,32,11.10
2016,05,29,08,33,11.10
2016,05,29,08,34,11.20
2016,05,29,08,35,11.20
2016,05,29,08,36,11.20
2016,05,29,08,37,11.20
2016,05,29,08,38,11.10
2016,05,29,08,39,11.20
2016,05,29,08,40,11.20
2016,05,29,08,41,11.20
2016,05,29,08,42,11.20
2016,05,29,08,43,11.20
2016,05,29,08,44,11.30
2016,05,29,08,45,11.30
2016,05,29,08,46,11.30
2016,05,29,08,47,11.40
2016,05,29,08,48,11.40
2016,05,29,08,49,11.40
2016,05,29,08,50,11.40
2016,05,29,08,51,11.40
2016,05,29,08,52,11.40
2016,05,29,08,53,11.40
2016,05,29,08,54,11.50
2016,05,29,08,55,11.50
2016,05,29,08,56,11.60
2016,05,29,08,57,11.60
2016,05,29,08,58,11.60
2016,05,29,08,59,11.60
2016,05,29,09,00,11.60
2016,05,29,09,01,11.60
2016,05,29,09,02,11.60
2016,05,29,09,03,11.70
2016,05,29,09,04,11.70
2016,05,29,09,05,11.70
2016,05,29,09,06,11.70
2016,05,29,09,07,11.70
2016,05,29,09,08,11.70
2016,05,29,09,09,11.80
2016,05,29,09,10,11.80
2016,05,29,09,11,11.80
2016,05,29,09,12,11.80
2016,05,29,09,13,11.80
2016,05,29,09,14,11.90
2016,05,29,09,15,11.90
2016,05,29,09,16,12.00
2016,05,29,09,17,12.00
2016,05,29,09,18,12.10
2016,05,29,09,19,12.20
2016,05,29,09,20,12.30
2016,05,29,09,21,12.30
2016,05,29,09,22,12.40
2016,05,29,09,23,12.50
2016,05,29,09,24,12.60
2016,05,29,09,25,12.70
2016,05,29,09,26,12.80
2016,05,29,09,27,12.80
2016,05,29,09,28,12.90
2016,05,29,09,29,13.00
2016,05,29,09,30,13.10
2016,05,29,09,31,13.10
2016,05,29,09,32,13.20
2016,05,29,09,33,13.20
2016,05,29,09,34,13.30
2016,05,29,09,35,13.30
2016,05,29,09,36,13.30
2016,05,29,09,37,13.40
2016,05,29,09,38,13.50
2016,05,29,09,39,13.60
2016,05,29,09,40,13.60
2016,05,29,09,41,13.70
2016,05,29,09,42,13.80
2016,05,29,09,43,13.80
2016,05,29,09,44,13.80
2016,05,29,09,45,13.90
2016,05,29,09,46,14.00
2016,05,29,09,47,14.00
2016,05,29,09,48,14.10
2016,05,29,09,49,14.10
2016,05,29,09,50,14.20
2016,05,29,09,51,14.20
2016,05,29,09,52,14.10
2016,05,29,09,53,14.10
2016,05,29,09,54,14.10
2016,05,29,09,55,14.10
2016,05,29,09,56,14.10
2016,05,29,09,57,14.10
2016,05,29,09,58,14.10
2016,05,29,09,59,14.10
2016,05,29,10,00,14.10
2016,05,29,10,01,14.10
2016,05,29,10,02,14.10
2016,05,29,10,03,14.10
2016,05,29,10,04,14.20
2016,05,29,10,05,14.20
2016,05,29,10,06,14.10
2016,05,29,10,07,14.20
2016,05,29,10,08,14.20
2016,05,29,10,09,14.30
2016,05,29,10,10,14.30
2016,05,29,10,11,14.30
2016,05,29,10,12,14.30
2016,05,29,10,13,14.30
2016,05,29,10,14,14.30
2016,05,29,10,15,14.30
2016,05,29,10,16,14.40
2016,05,29,10,17,14.40
2016,05,29,10,18,14.40
2016,05,29,10,19,14.40
2016,05,29,10,20,14.40
2016,05,29,10,21,14.40
2016,05,29,10,22,14.40
2016,05,29,10,23,14.40
2016,05,29,10,24,14.40
2016,05,29,10,25,14.40
2016,05,29,10,26,14.40
2016,05,29,10,27,14.40
2016,05,29,10,28,14.50
2016,05,29,10,29,14.60
2016,05,29,10,30,14.60
2016,05,29,10,31,14.60
2016,05,29,10,32,14.60
2016,05,29,10,33,14.70
2016,05,29,10,34,14.80
2016,05,29,10,35,14.90
2016,05,29,10,36,15.00
2016,05,29,10,37,15.10
2016,05,29,10,38,15.20
2016,05,29,10,39,15.30
2016,05,29,10,40,15.30
2016,05,29,10,41,15.30
2016,05,29,10,42,15.40
2016,05,29,10,43,15.40
2016,05,29,10,44,15.30
2016,05,29,10,45,15.30
2016,05,29,10,46,15.30
2016,05,29,10,47,15.40
2016,05,29,10,48,15.50
2016,05,29,10,49,15.50
2016,05,29,10,50,15.50
2016,05,29,10,51,15.40
2016,05,29,10,52,15.30
2016,05,29,10,53,15.20
2016,05,29,10,54,15.20
2016,05,29,10,55,15.10
2016,05,29,10,56,15.10
2016,05,29,10,57,15.10
2016,05,29,10,58,15.10
2016,05,29,10,59,15.10
2016,05,29,11,00,15.20
2016,05,29,11,01,15.20
2016,05,29,11,02,15.10
2016,05,29,11,03,15.10
2016,05,29,11,04,15.10
2016,05,29,11,05,15.10
2016,05,29,11,06,15.10
2016,05,29,11,07,15.00
2016,05,29,11,08,15.00
2016,05,29,11,09,15.00
2016,05,29,11,10,15.00
2016,05,29,11,11,15.00
2016,05,29,11,12,15.10
2016,05,29,11,13,15.10
2016,05,29,11,14,15.00
2016,05,29,11,15,15.00
2016,05,29,11,16,14.90
2016,05,29,11,17,14.80
2016,05,29,11,18,14.80
2016,05,29,11,19,14.70
2016,05,29,11,20,14.70
2016,05,29,11,21,14.70
2016,05,29,11,22,14.80
2016,05,29,11,23,14.80
2016,05,29,11,24,14.70
2016,05,29,11,25,14.70
2016,05,29,11,26,14.70
2016,05,29,11,27,14.70
2016,05,29,11,28,14.70
2016,05,29,11,29,14.80
2016,05,29,11,30,14.80
2016,05,29,11,31,14.90
2016,05,29,11,32,14.90
2016,05,29,11,33,15.00
2016,05,29,11,34,15.10
2016,05,29,11,35,15.10
2016,05,29,11,36,15.20
2016,05,29,11,37,15.20
2016,05,29,11,38,15.20
2016,05,29,11,39,15.20
2016,05,29,11,40,15.20
2016,05,29,11,41,15.20
2016,05,29,11,42,15.20
2016,05,29,11,43,15.20
2016,05,29,11,44,15.30
2016,05,29,11,45,15.40
2016,05,29,11,46,15.40
2016,05,29,11,47,15.50
2016,05,29,11,48,15.60
2016,05,29,11,49,15.60
2016,05,29,11,50,15.70
2016,05,29,11,51,15.80
2016,05,29,11,52,15.90
2016,05,29,11,53,15.90
2016,05,29,11,54,15.90
2016,05,29,11,55,15.90
2016,05,29,11,56,15.80
2016,05,29,11,57,15.70
2016,05,29,11,58,15.70
2016,05,29,11,59,15.80
2016,05,29,12,00,15.80
2016,05,29,12,01,15.80
2016,05,29,12,02,15.80
2016,05,29,12,03,15.80
2016,05,29,12,04,15.80
2016,05,29,12,05,15.80
2016,05,29,12,06,15.90
2016,05,29,12,07,15.90
2016,05,29,12,08,15.90
2016,05,29,12,09,15.90
2016,05,29,12,10,15.90
2016,05,29,12,11,15.80
2016,05,29,12,12,15.80
2016,05,29,12,13,15.80
2016,05,29,12,14,15.80
2016,05,29,12,15,15.90
2016,05,29,12,16,15.90
2016,05,29,12,17,16.00
2016,05,29,12,18,16.10
2016,05,29,12,19,16.10
2016,05,29,12,20,16.20
2016,05,29,12,21,16.20
2016,05,29,12,22,16.20
2016,05,29,12,23,16.20
2016,05,29,12,24,16.20
2016,05,29,12,25,16.20
2016,05,29,12,26,16.30
2016,05,29,12,27,16.30
2016,05,29,12,28,16.30
2016,05,29,12,29,16.40
2016,05,29,12,30,16.30
2016,05,29,12,31,16.30
2016,05,29,12,32,16.30
2016,05,29,12,33,16.20
2016,05,29,12,34,16.10
2016,05,29,12,35,16.10
2016,05,29,12,36,16.00
2016,05,29,12,37,16.00
2016,05,29,12,38,16.00
2016,05,29,12,39,16.00
2016,05,29,12,40,16.00
2016,05,29,12,41,16.00
2016,05,29,12,42,16.00
2016,05,29,12,43,16.00
2016,05,29,12,44,16.00
2016,05,29,12,45,16.10
2016,05,29,12,46,16.10
2016,05,29,12,47,16.20
2016,05,29,12,48,16.20
2016,05,29,12,49,16.20
2016,05,29,12,50,16.30
2016,05,29,12,51,16.30
2016,05,29,12,52,16.30
2016,05,29,12,53,16.40
2016,05,29,12,54,16.50
2016,05,29,12,55,16.60
2016,05,29,12,56,16.70
2016,05,29,12,57,16.80
2016,05,29,12,58,16.80
2016,05,29,12,59,16.80
2016,05,29,13,00,16.80
2016,05,29,13,01,16.70
2016,05,29,13,02,16.60
2016,05,29,13,03,16.50
2016,05,29,13,04,16.40
2016,05,29,13,05,16.40
2016,05,29,13,06,16.40
2016,05,29,13,07,16.50
2016,05,29,13,08,16.50
2016,05,29,13,09,16.60
2016,05,29,13,10,16.70
2016,05,29,13,11,16.70
2016,05,29,13,12,16.70
2016,05,29,13,13,16.70
2016,05,29,13,14,16.70
2016,05,29,13,15,16.70
2016,05,29,13,16,16.80
2016,05,29,13,17,16.80
2016,05,29,13,18,16.80
2016,05,29,13,19,16.80
2016,05,29,13,20,16.80
2016,05,29,13,21,16.80
2016,05,29,13,22,16.90
2016,05,29,13,23,16.90
2016,05,29,13,24,17.00
2016,05,29,13,25,17.00
2016,05,29,13,26,17.10
2016,05,29,13,27,17.10
2016,05,29,13,28,17.10
2016,05,29,13,29,17.10
2016,05,29,13,30,17.10
2016,05,29,13,31,17.00
2016,05,29,13,32,17.00
2016,05,29,13,33,17.00
2016,05,29,13,34,17.00
2016,05,29,13,35,16.90
2016,05,29,13,36,16.90
2016,05,29,13,37,16.90
2016,05,29,13,38,16.90
2016,05,29,13,39,16.90
2016,05,29,13,40,16.80
2016,05,29,13,41,16.80
2016,05,29,13,42,16.80
2016,05,29,13,43,16.90
2016,05,29,13,44,16.90
2016,05,29,13,45,16.90
2016,05,29,13,46,16.90
2016,05,29,13,47,16.90
2016,05,29,13,48,17.00
2016,05,29,13,49,17.10
2016,05,29,13,50,17.20
2016,05,29,13,51,17.20
2016,05,29,13,52,17.20
2016,05,29,13,53,17.10
2016,05,29,13,54,17.00
2016,05,29,13,55,17.00
2016,05,29,13,56,17.00
2016,05,29,13,57,17.00
2016,05,29,13,58,17.10
2016,05,29,13,59,17.10
2016,05,29,14,00,17.10
2016,05,29,14,01,17.20
2016,05,29,14,02,17.20
2016,05,29,14,03,17.30
2016,05,29,14,04,17.30
2016,05,29,14,05,17.40
2016,05,29,14,06,17.50
2016,05,29,14,07,17.50
2016,05,29,14,08,17.60
2016,05,29,14,09,17.70
2016,05,29,14,10,17.70
2016,05,29,14,11,17.70
2016,05,29,14,12,17.70
2016,05,29,14,13,17.80
2016,05,29,14,14,17.70
2016,05,29,14,15,17.70
2016,05,29,14,16,17.60
2016,05,29,14,17,17.50
2016,05,29,14,18,17.50
2016,05,29,14,19,17.60
2016,05,29,14,20,17.60
2016,05,29,14,21,17.60
2016,05,29,14,22,17.60
2016,05,29,14,23,17.60
2016,05,29,14,24,17.60
2016,05,29,14,25,17.60
2016,05,29,14,26,17.60
2016,05,29,14,27,17.60
2016,05,29,14,28,17.60
2016,05,29,14,29,17.70
2016,05,29,14,30,17.70
2016,05,29,14,31,17.80
2016,05,29,14,32,17.80
2016,05,29,14,33,17.90
2016,05,29,14,34,17.90
2016,05,29,14,35,18.00
2016,05,29,14,36,18.00
2016,05,29,14,37,18.00
2016,05,29,14,38,18.00
2016,05,29,14,39,17.90
2016,05,29,14,40,17.90
2016,05,29,14,41,17.90
2016,05,29,14,42,18.00
2016,05,29,14,43,18.10
2016,05,29,14,44,18.20
2016,05,29,14,45,18.20
2016,05,29,14,46,18.20
2016,05,29,14,47,18.10
2016,05,29,14,48,18.10
2016,05,29,14,49,18.10
2016,05,29,14,50,18.10
2016,05,29,14,51,18.10
2016,05,29,14,52,18.10
2016,05,29,14,53,18.00
2016,05,29,14,54,18.00
2016,05,29,14,55,18.00
2016,05,29,14,56,18.10
2016,05,29,14,57,18.10
2016,05,29,14,58,18.10
2016,05,29,14,59,18.10
2016,05,29,15,00,18.10
2016,05,29,15,01,18.20
2016,05,29,15,02,18.20
2016,05,29,15,03,18.20
2016,05,29,15,04,18.20
2016,05,29,15,05,18.30
2016,05,29,15,06,18.30
2016,05,29,15,07,18.50
2016,05,29,15,08,18.50
2016,05,29,15,09,18.60
2016,05,29,15,10,18.60
2016,05,29,15,11,18.60
2016,05,29,15,12,18.50
2016,05,29,15,13,18.50
2016,05,29,15,14,18.50
2016,05,29,15,15,18.60
2016,05,29,15,16,18.60
2016,05,29,15,17,18.60
2016,05,29,15,18,18.60
2016,05,29,15,19,18.60
2016,05,29,15,20,18.50
2016,05,29,15,21,18.50
2016,05,29,15,22,18.50
2016,05,29,15,23,18.40
2016,05,29,15,24,18.40
2016,05,29,15,25,18.50
2016,05,29,15,26,18.60
2016,05,29,15,27,18.70
2016,05,29,15,28,18.80
2016,05,29,15,29,18.90
2016,05,29,15,30,18.90
2016,05,29,15,31,19.00
2016,05,29,15,32,19.10
2016,05,29,15,33,19.00
2016,05,29,15,34,18.90
2016,05,29,15,35,18.80
2016,05,29,15,36,18.80
2016,05,29,15,37,18.80
2016,05,29,15,38,18.80
2016,05,29,15,39,18.80
2016,05,29,15,40,18.70
2016,05,29,15,41,18.70
2016,05,29,15,42,18.60
2016,05,29,15,43,18.60
2016,05,29,15,44,18.60
2016,05,29,15,45,18.60
2016,05,29,15,46,18.70
2016,05,29,15,47,18.80
2016,05,29,15,48,18.80
2016,05,29,15,49,18.90
2016,05,29,15,50,19.00
2016,05,29,15,51,19.10
2016,05,29,15,52,19.10
2016,05,29,15,53,19.10
2016,05,29,15,54,19.10
2016,05,29,15,55,19.10
2016,05,29,15,56,19.10
2016,05,29,15,57,19.20
2016,05,29,15,58,19.30
2016,05,29,15,59,19.40
2016,05,29,16,00,19.40
2016,05,29,16,01,19.50
2016,05,29,16,02,19.50
2016,05,29,16,03,19.50
2016,05,29,16,04,19.50
2016,05,29,16,05,19.60
2016,05,29,16,06,19.60
2016,05,29,16,07,19.50
2016,05,29,16,08,19.40
2016,05,29,16,09,19.40
2016,05,29,16,10,19.30
2016,05,29,16,11,19.20
2016,05,29,16,12,19.20
2016,05,29,16,13,19.10
2016,05,29,16,14,19.10
2016,05,29,16,15,19.00
2016,05,29,16,16,19.00
2016,05,29,16,17,18.90
2016,05,29,16,18,18.90
2016,05,29,16,19,18.80
2016,05,29,16,20,18.80
2016,05,29,16,21,18.80
2016,05,29,16,22,18.80
2016,05,29,16,23,18.80
2016,05,29,16,24,18.80
2016,05,29,16,25,18.90
2016,05,29,16,26,18.90
2016,05,29,16,27,18.90
2016,05,29,16,28,19.00
2016,05,29,16,29,19.00
2016,05,29,16,30,19.00
2016,05,29,16,31,18.90
2016,05,29,16,32,18.90
2016,05,29,16,33,19.00
2016,05,29,16,34,19.00
2016,05,29,16,35,19.10
2016,05,29,16,36,19.10
2016,05,29,16,37,19.20
2016,05,29,16,38,19.20
2016,05,29,16,39,19.10
2016,05,29,16,40,19.10
2016,05,29,16,41,19.10
2016,05,29,16,42,19.10
2016,05,29,16,43,19.10
2016,05,29,16,44,19.10
2016,05,29,16,45,19.10
2016,05,29,16,46,19.10
2016,05,29,16,47,19.00
2016,05,29,16,48,19.00
2016,05,29,16,49,18.90
2016,05,29,16,50,18.90
2016,05,29,16,51,18.90
2016,05,29,16,52,18.90
2016,05,29,16,53,18.90
2016,05,29,16,54,18.90
2016,05,29,16,55,18.90
2016,05,29,16,56,18.90
2016,05,29,16,57,18.90
2016,05,29,16,58,18.90
2016,05,29,16,59,18.90
2016,05,29,17,00,18.90
2016,05,29,17,01,19.00
2016,05,29,17,02,19.00
2016,05,29,17,03,19.10
2016,05,29,17,04,19.10
2016,05,29,17,05,19.20
2016,05,29,17,06,19.20
2016,05,29,17,07,19.30
2016,05,29,17,08,19.30
2016,05,29,17,09,19.30
2016,05,29,17,10,19.30
2016,05,29,17,11,19.20
2016,05,29,17,12,19.20
2016,05,29,17,13,19.10
2016,05,29,17,14,19.10
2016,05,29,17,15,19.20
2016,05,29,17,16,19.20
2016,05,29,17,17,19.30
2016,05,29,17,18,19.30
2016,05,29,17,19,19.40
2016,05,29,17,20,19.40
2016,05,29,17,21,19.40
2016,05,29,17,22,19.40
2016,05,29,17,23,19.40
2016,05,29,17,24,19.40
2016,05,29,17,25,19.40
2016,05,29,17,26,19.40
2016,05,29,17,27,19.30
2016,05,29,17,28,19.30
2016,05,29,17,29,19.20
2016,05,29,17,30,19.20
2016,05,29,17,31,19.20
2016,05,29,17,32,19.20
2016,05,29,17,33,19.20
2016,05,29,17,34,19.20
2016,05,29,17,35,19.10
2016,05,29,17,36,18.90
2016,05,29,17,37,18.80
2016,05,29,17,38,18.80
2016,05,29,17,39,18.70